Погода в Новоисетском

Россия / Свердловская область     56°21′58″N   62°08′36″E
темп.,
°C
ветер,
м/с
пор.,
м/с
влажн.,
%
обл.,
%
осадки,
мм/ч
давл.,
гПа
погр.,
м
17 мая, пн
пн1723:00+21юз611455 0.0 1017193
02:00+19зюз464747 0.0 101786
05:00+18зюз4105218 0.0 1018151
08:00+25з6133741 0.0 1018614
11:00+30з59245 0.0 10163146
14:00+32з811185 0.0 10153893
17:00+31з8112375 0.0 10143900
20:00+26з512345 0.0 1014290
18 мая, вт
вт1823:00+16з41481100 2.2 1017391
02:00+16зюз51280100 0.6 1015261
05:00+16з4979100 0.6 1014234
08:00+20зсз58650 0.0 1014509
11:00+24ссз674511 0.0 10141845
14:00+22с894980 0.0 1015909
17:00+21ссв8954100 0.0 10161343
20:00+16ссв8106813 0.0 1019906
19 мая, ср
ср1923:00+13ссв6106397 0.0 10221065
02:00+12ссв696898 0.0 1023660
05:00+12ссв586513 0.0 1024518
08:00+14св56562 0.0 10251160
11:00+17св56455 0.0 10251478
14:00+20св44365 0.0 10251620
17:00+20св443495 0.0 10241761
20:00+17в2248100 0.0 102429
20 мая, чт
чт2023:00+14всв11505 0.0 102511
02:00+12всв115872 0.0 102510
05:00+11юз226210 0.0 102614
08:00+16з344990 0.0 1025308
11:00+21з343586 0.0 10241320
14:00+24зюз34295 0.0 10231655
17:00+25юз44270 0.0 10211859
20:00+21ююз47440 0.0 1021107
21 мая, пт
пт2123:00+17юз46460 0.0 102171
02:00+15зюз48510 0.0 1021117
05:00+13зюз34550 0.0 102245
08:00+19зюз35425 0.0 1022271
11:00+25юз45294 0.0 10211279
14:00+26юз562584 0.0 10201864
17:00+26юз572522 0.0 10191960
20:00+22ююз354326 0.0 101967